STARLINK-35951, 66619

Orbit data source: Space-Track

STARLINK-35951, 66619 is a payload satellite owned by SpaceX/Seattle (US) in LEO that was launched on Sun, 23 Nov 2025 UTC via an FALCON 9 launch vehicle from the Air Force Western Test Range (AFWTR). Payload-class satellites include a variety of spacecraft equipped with specific instruments for various scientific and technological missions. These include communications satellites like Starlink; space stations such as the ISS; scientific satellites like the Hubble; Earth observation satellites from companies like Planet Labs, Umbra, and HawkEye 360; GPS; miniature CubeSats for education and research; and military/defense satellites.

Loading next visibility...
Identifier
66619, 2025-271C
Orbit
LEO
Country
Flag of USUS
Related business
Manufacturer
SpaceX/Seattle
Mission
Operational Commercial Communications
Bus & Motor
STARLINK V2MO, Unknown motor
Mass
575 kg wet, ~530 kg dry
Launch date (UTC)
2025-11-23 (5 months ago)
Launch vehicle
FALCON 9
Launch site
Air Force Western Test Range (AFWTR)
Object type
Payload
Rocket body
Debris
Shape & HBR
Box + 2 Pan, 17.7 m
Radar Cross Section
36.964 m²

Expand to show TLE details & history
Last TLE update: 8 hours ago

TLE from 8 hours ago
0 STARLINK-35951
1 66619U 25271C   26128.25327044  .00016642  00000-0  57224-3 0  9993
2 66619  53.1593 223.4454 0001474  62.7545 297.3606 15.30229553 26685
Epoch: 2026-05-08T06:04Z
TLE epoch observation values (Epoch: 2026-05-08T06:04:42.566Z)
Latitude
-0.00003°
Longitude
-93.81969°
Altitude
475.562 km
Speed
7.63 km/s
True Right ascension
14h 53m 46s
True Declination
0° 00' 00"
Sunlit
Object was in full shadow at epoch
Visualization orbit readout
Latitude
Unknown
Longitude
Unknown
Altitude
Unknown
Speed
Unknown
Apparent Right ascension
Unknown
Apparent Declination
Unknown
Sunlit
N/A
Visualization observer readout
Local Sidereal Time
21:45:38
Azimuth
Unknown
Elevation
Unknown
Doppler factor
Unknown
Orbital elements
Apogee altitude
476.394 km
Perigee altitude
474.373 km
Semi-major axis
6,853.52 km
Eccentricity
0.00015
Inclination
53.1593°
RAAN
223.4454°
Arg. of periapsis
62.7545°
True anomaly
297.3456°
Mean anomaly
297.3606°
Eccentric anomaly
297.3531°
Mean motion
3.82536 °/min
Orbital period
94.11 mins
BSTAR
0.00057224
Loading maneuver chart data...
Computing Atmospheric mass density...
Loading historical data...
Loading historical data...
Loading historical data...
Loading historical data...
Loading historical data...
Loading historical data...
Loading historical data...

Documentation

Showing up to 5 results
|